Location: Bieujac
(44.5398°N, 0.1549°W)
Time: 05:55:05
(UTC+00:00)

ASTEX 1 - Pass Details

Date: 17 November 2019
Orbit: 721 x 743 km, 92.7° (Epoch: 12 December)

Event Time Altitude Azimuth Distance (km) Brightness Sun altitude
Rises 04:50:27 0° 182° (S) 3,147 6.7 -22.8°
Reaches altitude 10° 04:52:45 10° 186° (S) 2,233 5.9 -22.4°
Maximum altitude 04:57:39 61° 267° (W) 840 3.3 -21.5°
Drops below altitude 10° 05:02:36 10° 347° (NNW) 2,262 5.7 -20.7°
Sets 05:04:57 0° 351° (N) 3,191 6.6 -20.2°
